AirNav   Pilot Hours Calculator
 
 1063 users online  

64GA Big 'T' Airport
Senoia, Georgia, USA

GOING TO SENOIA?


FAA INFORMATION EFFECTIVE 20 MAY 2021

Location

FAA Identifier: 64GA
Lat/Long: 33-17-00.4290N 084-32-19.7370W
33-17.007150N 084-32.328950W
33.2834525,-84.5388158
(estimated)
Elevation: 900 ft. / 274 m (estimated)
Variation: 01W (1985)
From city: 1 mile SE of SENOIA, GA
Time zone: UTC -4 (UTC -5 during Standard Time)
Zip code: 30276

Airport Operations

Airport use: Private use. Permission required prior to landing
Activation date: 01/1987
Control tower: no
ARTCC: ATLANTA CENTER
FSS: MACON FLIGHT SERVICE STATION
Attendance: UNATNDD
Wind indicator: yes
Segmented circle: yes

Airport Communications

WX ASOS at FFC (5 nm N): 118.525 (770-487-1610)
WX AWOS-3PT at CCO (12 nm W): 118.975 (770-254-1617)
WX AWOS-3 at HMP (12 nm NE): 124.825 (770-707-1719)
WX AWOS-3 at 6A2 (14 nm E): 119.750 (770-227-3934)

Nearby radio navigation aids

VOR radial/distance  VOR name  Freq  Var
ATLr199/21.4ATLANTA VORTAC116.9005W
LGCr066/36.3LAGRANGE VORTAC115.6001E
PDKr204/37.5PEACHTREE VOR/DME116.6005W

 
NDB name  Hdg/Dist  Freq  Var  ID
PECAT253/2.831605WFFC ..-. ..-. -.-.
COWETA COUNTY083/8.923403WEQQ . --.- --.-
PINE MOUNTAIN035/31.327203WPIM .--. .. --
CARROLLTON124/34.227804WGPQ --. .--. --.-

Airport Services

Runway Information

Runway 16/34

Dimensions: 2050 x 150 ft. / 625 x 46 m
Surface: turf
RUNWAY 16  RUNWAY 34
Traffic pattern: rightleft

Airport Ownership and Management from official FAA records

Ownership: Privately-owned
Owner: BIG T HOMEOWNERS ASSOC
65 TINSLEY WAY
SENOIA, GA 30276
Phone 770-599-4567
Manager: JIM RENWICK
65 TINSLEY WAY
SENOIA, GA 30276
Phone 770-599-4567

Airport Operational Statistics

Aircraft based on the field: 20
Single engine airplanes: 20
    

Additional Remarks

FOR CD CTC ATLANTA APCH AT 678-364-6131.
(CONTACT TITLE) AMGR CELL PHONE: 770-827-5952

Instrument Procedures

There are no published instrument procedures at 64GA.

Some nearby airports with instrument procedures:

KFFC - Atlanta Regional Airport-Falcon Field (5 nm N)
KCCO - Newnan Coweta County Airport (12 nm W)
KHMP - Atlanta Speedway Airport (12 nm NE)
6A2 - Griffin-Spalding County Airport (14 nm E)
KATL - Hartsfield - Jackson Atlanta International Airport (22 nm N)
 
Loc | Ops | Rwys | IFR | FBO | Links
Com | Nav | Svcs | Stats | Notes
Area around 64GA (Big 'T' Airport)
 
Road maps at: MapQuest Bing Google
 
Aerial photo
WARNING: Photo may not be current or correct
Aerial photo of 64GA (Big 'T' Airport)
Photo taken 04-Sep-2015
looking west.

Do you have a better or more recent aerial photo of Big 'T' Airport that you would like to share? If so, please send us your photo.

 
Sectional chart

 
Airport distance calculator
Flying to Big 'T' Airport? Find the distance to fly.

From to 64GA

Sunrise and sunset
Times for 13-Jun-2021
 Local
(UTC-4)
 Zulu
(UTC)
Morning civil twilight06:0010:00
Sunrise06:2910:29
Sunset20:4700:47
Evening civil twilight21:1601:16

Current date and time
Zulu (UTC)  13-Jun-2021 19:52:18
Local (UTC-4)  13-Jun-2021 15:52:18
 
METAR
KFFC 
4nm N 
131853Z AUTO 07005KT 10SM SCT040 BKN049 BKN060 30/21 A2992 RMK AO2 SLP124 T03000206
KCCO 
12nm W 
131935Z AUTO 06006KT 10SM SCT050 32/20 A2990 RMK AO2 T03150195
KHMP 
12nm NE 
131935Z AUTO 02005KT 10SM BKN039 BKN050 30/21 A2993 RMK AO2 T03010206
K6A2 
14nm E 
131935Z AUTO 06006KT 040V110 10SM SCT038 SCT048 29/19 A2992 RMK AO2
TAF
KATL 
21nm N 
131745Z 1318/1424 05004KT P6SM BKN040 BKN250 FM140100 VRB03KT P6SM SCT250 FM141300 26004KT P6SM FEW250 FM141800 31007KT P6SM VCSH SCT040 FM142300 31006KT P6SM SKC
NOTAMs
Click for the latest NOTAMs
NOTAMs are issued by the DoD/FAA and will open in a separate window not controlled by AirNav.

 

 
 

Would you like to see your business listed on this page?

 If your business provides an interesting product or service to pilots, flight crews, aircraft, or users of the Big 'T' Airport, you should consider listing it here.  To start the listing process, click on the button below
 
Add a business
 

Other Pages about Big 'T' Airport

Update a link
 
Copyright © AirNav, LLC. All rights reserved. Privacy Policy  Contact